Location: Lima
(44.6384°N, 112.5920°W)
Time: 03:59:48
(UTC+00:00)

RS-15 - Visible Passes

Search period start: 16 April 2024 00:00
Search period end: 26 April 2024 00:00
Orbit: 1895 x 2150 km, 64.8° (Epoch: 15 April)

Date Brightness Start Highest point End Pass type
(mag) Time Alt. Az. Time Alt. Az. Time Alt. Az.
16 Apr 8.7 02:58:11 10° SSE 03:07:24 27° ESE 03:16:17 10° NE visible
16 Apr 8.0 05:06:21 10° SSW 05:18:25 89° WNW 05:29:59 10° NE visible
16 Apr 9.1 07:21:48 10° W 07:32:27 37° NNW 07:42:45 10° NE visible
16 Apr 9.6 09:39:53 10° NW 09:49:13 27° N 09:58:14 10° ENE visible
16 Apr 9.0 11:54:27 10° NW 12:05:15 48° NE 12:15:41 10° ESE visible
17 Apr 8.0 04:30:25 10° SSW 04:42:24 75° ESE 04:53:51 10° NE visible
17 Apr 8.9 06:44:43 10° WSW 06:55:49 43° NW 07:06:30 10° NE visible
17 Apr 9.6 09:02:54 10° WNW 09:12:13 27° N 09:21:14 10° NE visible
17 Apr 9.2 11:18:14 10° NW 11:28:43 41° NNE 11:38:49 10° E visible
18 Apr 8.0 03:54:47 10° S 04:06:29 61° ESE 04:17:42 10° NE visible
18 Apr 8.7 06:07:49 10° WSW 06:19:18 51° NW 06:30:20 10° NE visible
18 Apr 9.6 08:25:45 10° WNW 08:35:14 27° N 08:44:24 10° NE visible
18 Apr 9.4 10:41:55 10° NW 10:52:02 35° NNE 11:01:49 10° E visible
19 Apr 8.2 03:19:28 10° S 03:30:41 48° ESE 03:41:27 10° NE visible
19 Apr 8.5 05:31:07 10° SW 05:42:55 61° NW 05:54:13 10° NE visible
19 Apr 9.5 07:48:31 10° WNW 07:58:17 29° NNW 08:07:43 10° NE visible
19 Apr 9.5 10:05:28 10° NW 10:15:15 31° NNE 10:24:43 10° E visible
20 Apr 8.5 02:44:31 10° SSE 02:55:00 37° ESE 03:05:04 10° NE visible
20 Apr 8.2 04:54:39 10° SW 05:06:39 73° NW 05:18:08 10° NE visible
20 Apr 9.4 07:11:15 10° W 07:21:24 32° NNW 07:31:13 10° NE visible
20 Apr 9.6 09:28:52 10° NW 09:38:23 29° NNE 09:47:34 10° ENE visible
20 Apr 8.7 11:42:42 10° NW 11:53:45 59° NE 12:04:28 10° ESE visible
21 Apr 8.1 04:18:26 10° SW 04:30:30 87° NW 04:42:03 10° NE visible
21 Apr 9.3 06:34:02 10° W 06:44:38 36° NNW 06:54:51 10° NE visible
21 Apr 9.7 08:52:05 10° NW 09:01:25 27° N 09:10:27 10° ENE visible
21 Apr 8.9 11:06:33 10° NW 11:17:23 49° NE 11:27:51 10° ESE visible
22 Apr 8.0 03:42:28 10° SSW 03:54:28 78° ESE 04:05:57 10° NE visible
22 Apr 9.1 05:56:57 10° WSW 06:07:59 42° NW 06:18:35 10° NE visible
22 Apr 9.7 08:15:08 10° NW 08:24:26 27° N 08:33:26 10° NE visible
22 Apr 9.2 10:30:20 10° NW 10:40:51 41° NNE 10:51:01 10° ESE visible
23 Apr 8.1 03:06:48 10° SSW 03:18:32 63° ESE 03:29:47 10° NE visible
23 Apr 8.8 05:20:01 10° WSW 05:31:27 49° NW 05:42:24 10° NE visible
23 Apr 9.7 07:38:00 10° WNW 07:47:27 27° N 07:56:34 10° NE visible
23 Apr 9.4 09:54:02 10° NW 10:04:12 36° NNE 10:14:02 10° E visible
24 Apr 8.6 04:43:18 10° WSW 04:55:02 59° NW 05:06:18 10° NE visible
24 Apr 9.6 07:00:47 10° WNW 07:10:29 29° NNW 07:19:52 10° NE visible
24 Apr 9.5 09:17:37 10° NW 09:27:26 32° NNE 09:36:56 10° E visible
24 Apr 8.3 11:30:54 10° NW 11:42:07 73° NE 11:53:00 10° SE visible
25 Apr 8.4 04:06:47 10° SW 04:18:45 71° NW 04:30:12 10° NE visible
25 Apr 9.5 06:23:31 10° W 06:33:36 32° NNW 06:43:20 10° NE visible
25 Apr 9.6 08:41:03 10° NW 08:50:35 29° NNE 08:59:47 10° ENE visible
25 Apr 8.5 10:54:47 10° NW 11:05:52 60° NE 11:16:36 10° SE visible
